Location: Igloolik
(69.3800°N, 81.8000°W)
Time: 11:25:31
(UTC-05:00)

Amateur Radio Satellites - All Passes

Search period start: 16 April 2014 10:55
Search period end: 17 April 2014 10:55
Location: Igloolik, 69.3800°N, 81.8000°W

Satellite Date Start Highest point End Downlink Frequencies (MHz)
Time Altitude Azimuth
Hamsat 16 Apr 10:59:59 11:02:58 19° 339° (NNW) 11:05:57 145.90 MHz
AO-27 16 Apr 11:11:39 11:16:33 44° 43° (NE) 11:21:27 436.795 MHz FM
ITAMSAT 1 16 Apr 11:23:12 11:28:10 47° 45° (NE) 11:33:07 435.822 SSB
RS-15 16 Apr 11:25:55 11:36:49 70° 172° (S) 11:47:39 29.354 - 29.394 USB, Beacon 29.352 USB
AO-7 16 Apr 11:27:53 11:35:42 49° 11° (N) 11:43:32 29.400 - 29.500 MHz
TMSAT-1 16 Apr 11:35:07 11:39:47 32° 31° (NNE) 11:44:28 436.925 FM
Oscar 19 16 Apr 11:35:45 11:40:52 65° 55° (NE) 11:46:02 437.125 CW, 437.150 USB
SO-67 16 Apr 11:36:51 11:38:52 15° 333° (NNW) 11:40:52 435.3500 MHz FM
JAS-1B 16 Apr 11:40:42 11:46:53 36° 25° (NNE) 11:52:20 435.800 - 435.900 CW/SSB
Oscar 16 16 Apr 11:43:22 11:48:31 71° 58° (ENE) 11:53:43 437.025 USB, Beacon 2401.1428
JAS-2 16 Apr 11:51:23 11:55:43 27° 338° (NNW) 12:00:04 435.800 - 435.900 CW/SSB, 435.910 FM
KITSAT 1 16 Apr 11:55:49 12:03:00 36° 234° (SW) 12:10:08 435.175 FM
FUNcube-1 16 Apr 12:03:18 12:07:31 87° 115° (ESE) 12:11:46 145.950 - 145.970 MHz USB
AO-Echo 16 Apr 12:05:20 12:10:25 58° 53° (NE) 12:15:21 ?
HO-68 16 Apr 12:08:21 12:15:28 68° 313° (NW) 12:22:36 435.675 MHz FM
Uribyol 2 16 Apr 12:12:15 12:17:25 72° 57° (ENE) 12:22:35 436.500 FM
Uosat F 16 Apr 12:21:37 12:26:02 32° 32° (NNE) 12:30:28 435.120 FM
Gurwin Techsat 1B 16 Apr 12:23:41 12:28:48 49° 47° (NE) 12:33:55 435.225 FM
Oscar 11 16 Apr 12:23:45 12:27:56 47° 308° (NW) 12:32:07 145.825 FM, Beacon 2401.500 USB
Hamsat 16 Apr 12:35:13 12:37:45 16° 2° (N) 12:40:17 145.90 MHz
Saudisat 1A 16 Apr 12:42:11 12:45:08 18° 131° (SE) 12:48:05 436.775 MHz
AO-27 16 Apr 12:50:41 12:55:55 83° 246° (WSW) 13:01:09 436.795 MHz FM
ITAMSAT 1 16 Apr 13:02:23 13:07:35 75° 248° (WSW) 13:12:48 435.822 SSB
SO-67 16 Apr 13:10:14 13:10:52 10° 356° (N) 13:11:31 435.3500 MHz FM
TMSAT-1 16 Apr 13:13:55 13:19:10 64° 55° (NE) 13:24:26 436.925 FM
Oscar 19 16 Apr 13:15:27 13:20:29 50° 258° (WSW) 13:25:33 437.125 CW, 437.150 USB
AO-7 16 Apr 13:19:36 13:27:46 66° 38° (NE) 13:35:58 29.400 - 29.500 MHz
Oscar 16 16 Apr 13:23:18 13:28:15 45° 261° (W) 13:33:14 437.025 USB, Beacon 2401.1428
JAS-1B 16 Apr 13:29:48 13:36:57 63° 50° (NE) 13:43:02 435.800 - 435.900 CW/SSB
JAS-2 16 Apr 13:35:36 13:39:41 23° 4° (N) 13:43:43 435.800 - 435.900 CW/SSB, 435.910 FM
RS-15 16 Apr 13:37:43 13:48:28 65° 203° (SSW) 13:59:14 29.354 - 29.394 USB, Beacon 29.352 USB
FUNcube-1 16 Apr 13:39:57 13:43:44 34° 315° (NW) 13:47:33 145.950 - 145.970 MHz USB
AO-Echo 16 Apr 13:44:13 13:49:20 57° 256° (WSW) 13:54:20 ?
KITSAT 1 16 Apr 13:51:35 13:56:12 17° 260° (W) 14:00:47 435.175 FM
Uribyol 2 16 Apr 13:52:19 13:57:16 44° 261° (W) 14:02:15 436.500 FM
HO-68 16 Apr 13:55:54 14:02:34 43° 339° (NNW) 14:09:14 435.675 MHz FM
Uosat F 16 Apr 13:59:21 14:04:20 65° 55° (NE) 14:09:20 435.120 FM
Oscar 11 16 Apr 14:00:04 14:03:28 23° 331° (NNW) 14:06:52 145.825 FM, Beacon 2401.500 USB
Gurwin Techsat 1B 16 Apr 14:03:24 14:08:43 72° 250° (WSW) 14:14:05 435.225 FM
Hamsat 16 Apr 14:09:26 14:12:34 20° 26° (NNE) 14:15:43 145.90 MHz
Saudisat 1A 16 Apr 14:19:46 14:23:48 34° 154° (SSE) 14:27:51 436.775 MHz
OPAL 16 Apr 14:24:25 14:28:36 24° 89° (E) 14:32:47 ?
AO-27 16 Apr 14:31:33 14:36:09 31° 269° (W) 14:40:46 436.795 MHz FM
SO-67 16 Apr 14:41:20 14:42:49 12° 19° (NNE) 14:44:18 435.3500 MHz FM
ITAMSAT 1 16 Apr 14:43:29 14:47:55 28° 272° (W) 14:52:21 435.822 SSB
TMSAT-1 16 Apr 14:54:10 14:59:21 52° 258° (WSW) 15:04:34 436.925 FM
Oscar 19 16 Apr 14:57:28 15:01:04 19° 282° (WNW) 15:04:41 437.125 CW, 437.150 USB
Oscar 16 16 Apr 15:05:42 15:08:58 17° 285° (WNW) 15:12:15 437.025 USB, Beacon 2401.1428
AO-7 16 Apr 15:12:23 15:20:42 74° 244° (WSW) 15:29:03 29.400 - 29.500 MHz
FUNcube-1 16 Apr 15:16:26 15:19:20 19° 338° (NNW) 15:22:14 145.950 - 145.970 MHz USB
JAS-2 16 Apr 15:19:03 15:23:44 31° 30° (NNE) 15:28:16 435.800 - 435.900 CW/SSB, 435.910 FM
JAS-1B 16 Apr 15:20:28 15:27:51 62° 254° (WSW) 15:34:05 435.800 - 435.900 CW/SSB
AO-Echo 16 Apr 15:25:18 15:29:10 21° 279° (W) 15:32:59 ?
Uribyol 2 16 Apr 15:34:52 15:38:07 17° 284° (WNW) 15:41:22 436.500 FM
Oscar 11 16 Apr 15:35:49 15:38:33 17° 355° (N) 15:41:18 145.825 FM, Beacon 2401.500 USB
Uosat F 16 Apr 15:38:31 15:43:24 48° 258° (WSW) 15:48:18 435.120 FM
HO-68 16 Apr 15:42:44 15:49:12 39° 5° (N) 15:55:41 435.675 MHz FM
Hamsat 16 Apr 15:43:49 15:47:47 39° 49° (NE) 15:51:48 145.90 MHz
Gurwin Techsat 1B 16 Apr 15:45:05 15:49:35 27° 273° (W) 15:54:07 435.225 FM
RS-15 16 Apr 15:49:26 15:59:20 43° 233° (SW) 16:09:19 29.354 - 29.394 USB, Beacon 29.352 USB
Saudisat 1A 16 Apr 15:58:36 16:02:53 46° 177° (S) 16:07:09 436.775 MHz
OPAL 16 Apr 16:03:16 16:08:27 63° 112° (ESE) 16:13:38 ?
SO-67 16 Apr 16:12:14 16:15:02 22° 41° (NE) 16:17:50 435.3500 MHz FM
AO-27 16 Apr 16:15:51 16:17:26 11° 293° (WNW) 16:19:01 436.795 MHz FM
SO-50 16 Apr 16:19:40 16:21:00 11° 119° (ESE) 16:22:21 436.795 FM
TMSAT-1 16 Apr 16:36:44 16:40:31 19° 282° (WNW) 16:44:20 436.925 FM
FUNcube-1 16 Apr 16:52:09 16:54:36 15° 2° (N) 16:57:02 145.950 - 145.970 MHz USB
STRAND 1 16 Apr 16:57:52 16:59:19 11° 67° (ENE) 17:00:46 ?
JAS-2 16 Apr 17:02:56 17:08:21 63° 54° (NE) 17:13:29 435.800 - 435.900 CW/SSB, 435.910 FM
AO-7 16 Apr 17:07:25 17:14:53 36° 270° (W) 17:22:24 29.400 - 29.500 MHz
Oscar 11 16 Apr 17:10:33 17:13:33 19° 18° (NNE) 17:16:35 145.825 FM, Beacon 2401.500 USB
JAS-1B 16 Apr 17:13:49 17:19:46 26° 278° (W) 17:25:03 435.800 - 435.900 CW/SSB
Hamsat 16 Apr 17:19:25 17:23:40 73° 251° (WSW) 17:27:59 145.90 MHz
Uosat F 16 Apr 17:20:03 17:23:26 18° 281° (WNW) 17:26:49 435.120 FM
HO-68 16 Apr 17:29:08 17:35:56 49° 30° (NNE) 17:42:46 435.675 MHz FM
Saudisat 1A 16 Apr 17:37:52 17:42:01 38° 200° (SSW) 17:46:09 436.775 MHz
OPAL 16 Apr 17:42:21 17:47:25 56° 315° (NW) 17:52:31 ?
SO-67 16 Apr 17:44:17 17:47:46 66° 63° (ENE) 17:51:17 435.3500 MHz FM
SO-50 16 Apr 17:56:32 18:00:17 26° 142° (SE) 18:04:06 436.795 FM
RS-15 16 Apr 18:01:27 18:08:37 21° 262° (W) 18:15:50 29.354 - 29.394 USB, Beacon 29.352 USB
FUNcube-1 16 Apr 18:26:50 18:29:53 20° 26° (NNE) 18:32:56 145.950 - 145.970 MHz USB
STRAND 1 16 Apr 18:35:43 18:40:15 31° 91° (E) 18:44:45 ?
Oscar 11 16 Apr 18:45:00 18:48:51 32° 41° (NE) 18:52:43 145.825 FM, Beacon 2401.500 USB
JAS-2 16 Apr 18:48:24 18:53:47 51° 258° (WSW) 18:58:53 435.800 - 435.900 CW/SSB, 435.910 FM
Hamsat 16 Apr 18:57:00 19:00:23 23° 274° (W) 19:03:50 145.90 MHz
UOSAT-12 16 Apr 18:58:48 19:01:43 17° 127° (SE) 19:04:40 437.025 FM, 437.400 FM
AO-7 16 Apr 19:05:59 19:10:39 16° 298° (WNW) 19:15:20 29.400 - 29.500 MHz
HO-68 16 Apr 19:16:07 19:23:18 84° 56° (NE) 19:30:31 435.675 MHz FM
Saudisat 1A 16 Apr 19:17:27 19:20:50 21° 223° (SW) 19:24:11 436.775 MHz
SO-67 16 Apr 19:18:03 19:21:14 31° 265° (W) 19:24:26 435.3500 MHz FM
OPAL 16 Apr 19:21:10 19:25:43 32° 338° (NNW) 19:30:18 ?
SO-50 16 Apr 19:35:52 19:40:09 43° 165° (SSE) 19:44:31 436.795 FM
FUNcube-1 16 Apr 20:01:40 20:05:34 39° 49° (NE) 20:09:29 145.950 - 145.970 MHz USB
STRAND 1 16 Apr 20:15:00 20:20:09 83° 114° (ESE) 20:25:17 ?
Oscar 11 16 Apr 20:20:23 20:24:43 81° 64° (ENE) 20:29:06 145.825 FM, Beacon 2401.500 USB
JAS-2 16 Apr 20:36:30 20:40:14 18° 282° (WNW) 20:43:51 435.800 - 435.900 CW/SSB, 435.910 FM
UOSAT-12 16 Apr 20:36:39 20:40:50 33° 150° (SSE) 20:45:04 437.025 FM, 437.400 FM
OPAL 16 Apr 20:59:22 21:03:39 27° 2° (N) 21:07:58 ?
HO-68 16 Apr 21:04:48 21:11:40 47° 261° (W) 21:18:35 435.675 MHz FM
SO-50 16 Apr 21:15:55 21:20:16 45° 189° (S) 21:24:41 436.795 FM
FUNcube-1 16 Apr 21:37:44 21:41:55 71° 251° (WSW) 21:46:07 145.950 - 145.970 MHz USB
STRAND 1 16 Apr 21:54:22 21:59:11 43° 317° (NW) 22:03:58 ?
Oscar 11 16 Apr 21:57:28 22:01:23 32° 266° (W) 22:05:20 145.825 FM, Beacon 2401.500 USB
UOSAT-12 16 Apr 22:15:55 22:20:25 47° 174° (S) 22:24:58 437.025 FM, 437.400 FM
OPAL 16 Apr 22:37:02 22:41:37 35° 26° (NNE) 22:46:17 ?
MaSat-1 16 Apr 22:46:01 22:46:51 11° 124° (SE) 22:47:39 437.345 MHz
HO-68 16 Apr 22:56:12 23:01:19 21° 287° (WNW) 23:06:28 435.675 MHz FM
SO-50 16 Apr 22:56:14 23:00:14 30° 212° (SSW) 23:04:18 436.795 FM
FUNcube-1 16 Apr 23:15:49 23:19:06 22° 274° (W) 23:22:23 145.950 - 145.970 MHz USB
STRAND 1 16 Apr 23:33:23 23:37:33 26° 341° (NNW) 23:41:42 ?
Oscar 11 16 Apr 23:37:56 23:38:58 11° 290° (WNW) 23:40:01 145.825 FM, Beacon 2401.500 USB
Oscar 16 16 Apr 23:42:06 23:42:56 10° 64° (ENE) 23:43:47 437.025 USB, Beacon 2401.1428
UOSAT-12 16 Apr 23:55:41 00:00:08 42° 197° (SSW) 00:04:36 437.025 FM, 437.400 FM
Uribyol 2 17 Apr 00:12:33 00:12:49 10° 64° (ENE) 00:13:04 436.500 FM
OPAL 17 Apr 00:14:58 00:20:01 65° 49° (NE) 00:25:09 ?
MaSat-1 17 Apr 00:22:19 00:24:42 36° 146° (SSE) 00:27:02 437.345 MHz
SO-50 17 Apr 00:37:14 00:39:43 15° 235° (SW) 00:42:12 436.795 FM
AO-27 17 Apr 00:49:25 00:52:23 15° 73° (ENE) 00:55:21 436.795 MHz FM
ITAMSAT 1 17 Apr 01:00:46 01:04:06 17° 76° (ENE) 01:07:24 435.822 SSB
Sapphire 17 Apr 01:02:32 01:05:49 17° 114° (ESE) 01:09:07 437.095 MHz 1200 baud AX-25 AFSK
STRAND 1 17 Apr 01:11:40 01:15:36 23° 5° (N) 01:19:31 ?
Oscar 19 17 Apr 01:11:53 01:16:13 26° 86° (E) 01:20:32 437.125 CW, 437.150 USB
Oscar 16 17 Apr 01:19:38 01:24:09 29° 89° (E) 01:28:38 437.025 USB, Beacon 2401.1428
UOSAT-12 17 Apr 01:35:42 01:39:33 25° 220° (SW) 01:43:24 437.025 FM, 437.400 FM
AO-Echo 17 Apr 01:36:46 01:40:32 21° 82° (E) 01:44:13 ?
PCSat 17 Apr 01:46:03 01:50:23 25° 125° (SE) 01:54:43 145.825 MHz
Uribyol 2 17 Apr 01:49:42 01:54:10 28° 89° (E) 01:58:36 436.500 FM
OPAL 17 Apr 01:54:10 01:59:09 52° 252° (WSW) 02:04:13 ?
MaSat-1 17 Apr 02:00:30 02:03:00 86° 163° (SSE) 02:05:32 437.345 MHz
Gurwin Techsat 1B 17 Apr 02:04:49 02:08:40 20° 78° (ENE) 02:12:29 435.225 FM
AO-27 17 Apr 02:28:27 02:33:23 41° 97° (E) 02:38:16 436.795 MHz FM
ITAMSAT 1 17 Apr 02:39:57 02:44:57 45° 100° (E) 02:49:55 435.822 SSB
KITSAT 1 17 Apr 02:41:02 02:46:34 21° 107° (ESE) 02:52:06 435.175 FM
Sapphire 17 Apr 02:43:04 02:48:01 37° 137° (SE) 02:52:58 437.095 MHz 1200 baud AX-25 AFSK
JAS-1B 17 Apr 02:48:48 02:53:02 19° 74° (ENE) 02:57:04 435.800 - 435.900 CW/SSB
STRAND 1 17 Apr 02:49:18 02:53:44 31° 29° (NNE) 02:58:10 ?
Oscar 19 17 Apr 02:51:15 02:56:28 70° 109° (ESE) 03:01:41 437.125 CW, 437.150 USB
TMSAT-1 17 Apr 02:54:46 02:59:17 27° 87° (E) 03:03:47 436.925 FM
AO-7 17 Apr 02:56:55 03:02:44 20° 70° (ENE) 03:08:31 29.400 - 29.500 MHz
Oscar 16 17 Apr 02:59:04 03:04:18 77° 112° (ESE) 03:09:31 437.025 USB, Beacon 2401.1428
AO-Echo 17 Apr 03:15:25 03:20:22 60° 106° (ESE) 03:25:09 ?
UOSAT-12 17 Apr 03:17:21 03:18:21 11° 243° (WSW) 03:19:22 437.025 FM, 437.400 FM
Oscar 10/S400 17 Apr 03:18:01 03:46:38 17° 114° (ESE) 05:34:04 145.825 - 145.975 CW/USB, Beacon 145.810 USB
PCSat 17 Apr 03:27:43 03:32:56 49° 149° (SSE) 03:38:10 145.825 MHz
Uribyol 2 17 Apr 03:29:14 03:34:27 76° 112° (ESE) 03:39:39 436.500 FM
Uosat F 17 Apr 03:31:14 03:35:14 23° 85° (E) 03:39:12 435.120 FM
OPAL 17 Apr 03:35:33 03:39:12 20° 276° (W) 03:42:54 ?
MaSat-1 17 Apr 03:38:58 03:41:28 82° 193° (SSW) 03:44:04 437.345 MHz
Gurwin Techsat 1B 17 Apr 03:44:39 03:49:53 52° 102° (ESE) 03:55:04 435.225 FM
AO-27 17 Apr 04:08:08 04:13:21 78° 301° (WNW) 04:18:33 436.795 MHz FM
ITAMSAT 1 17 Apr 04:19:37 04:24:48 71° 303° (WNW) 04:29:58 435.822 SSB
Sapphire 17 Apr 04:25:33 04:30:55 62° 161° (SSE) 04:36:17 437.095 MHz 1200 baud AX-25 AFSK
STRAND 1 17 Apr 04:27:19 04:32:21 60° 53° (NE) 04:37:24 ?
Oscar 19 17 Apr 04:30:47 04:35:48 50° 312° (NW) 04:40:49 437.125 CW, 437.150 USB
KITSAT 1 17 Apr 04:32:37 04:40:04 42° 133° (SE) 04:47:32 435.175 FM
TMSAT-1 17 Apr 04:34:45 04:40:05 73° 110° (ESE) 04:45:24 436.925 FM
Oscar 16 17 Apr 04:38:36 04:43:33 46° 315° (NW) 04:48:30 437.025 USB, Beacon 2401.1428
JAS-1B 17 Apr 04:39:29 04:45:27 52° 101° (ESE) 04:51:00 435.800 - 435.900 CW/SSB
AO-7 17 Apr 04:50:07 04:58:01 44° 97° (E) 05:05:54 29.400 - 29.500 MHz
Hamsat 17 Apr 04:51:53 04:53:31 12° 72° (ENE) 04:55:09 145.90 MHz
AO-Echo 17 Apr 04:54:22 04:59:14 53° 309° (NW) 05:03:56 ?
Uribyol 2 17 Apr 05:08:54 05:13:51 46° 315° (NW) 05:18:47 436.500 FM
Uosat F 17 Apr 05:09:58 05:14:59 64° 108° (ESE) 05:19:58 435.120 FM
PCSat 17 Apr 05:10:38 05:16:03 70° 173° (S) 05:21:28 145.825 MHz
MaSat-1 17 Apr 05:17:25 05:19:44 33° 216° (SW) 05:22:13 437.345 MHz
Gurwin Techsat 1B 17 Apr 05:24:49 05:30:06 64° 305° (NW) 05:35:21 435.225 FM
JAS-2 17 Apr 05:41:14 05:43:58 14° 71° (ENE) 05:46:44 435.800 - 435.900 CW/SSB, 435.910 FM
AO-27 17 Apr 05:47:47 05:52:30 36° 324° (NW) 05:57:13 436.795 MHz FM
ITAMSAT 1 17 Apr 05:59:13 06:03:51 34° 326° (NNW) 06:08:29 435.822 SSB
STRAND 1 17 Apr 06:06:41 06:11:44 55° 256° (WSW) 06:16:47 ?
Sapphire 17 Apr 06:08:45 06:14:10 70° 186° (S) 06:19:35 437.095 MHz 1200 baud AX-25 AFSK
Oscar 19 17 Apr 06:10:04 06:14:25 28° 336° (NNW) 06:18:46 437.125 CW, 437.150 USB
TMSAT-1 17 Apr 06:14:52 06:19:58 48° 313° (NW) 06:25:03 436.925 FM
Oscar 16 17 Apr 06:17:50 06:22:07 27° 339° (NNW) 06:26:24 437.025 USB, Beacon 2401.1428
KITSAT 1 17 Apr 06:26:36 06:34:37 65° 159° (SSE) 06:42:38 435.175 FM
Hamsat 17 Apr 06:26:48 06:30:48 35° 95° (E) 06:34:49 145.90 MHz
SO-67 17 Apr 06:28:38 06:30:30 14° 80° (E) 06:32:22 435.3500 MHz FM
JAS-1B 17 Apr 06:30:25 06:36:34 66° 308° (NW) 06:42:12 435.800 - 435.900 CW/SSB
RS-15 17 Apr 06:31:40 06:39:59 26° 106° (ESE) 06:48:11 29.354 - 29.394 USB, Beacon 29.352 USB
AO-Echo 17 Apr 06:33:09 06:37:21 27° 333° (NNW) 06:41:26 ?
AO-7 17 Apr 06:43:26 06:51:48 87° 124° (ESE) 07:00:11 29.400 - 29.500 MHz
Uribyol 2 17 Apr 06:48:16 06:52:33 27° 339° (NNW) 06:56:50 436.500 FM
Uosat F 17 Apr 06:48:57 06:53:50 52° 311° (NW) 06:58:42 435.120 FM
PCSat 17 Apr 06:53:55 06:59:18 63° 198° (SSW) 07:04:41 145.825 MHz
MaSat-1 17 Apr 06:57:10 06:57:34 10° 237° (WSW) 06:57:59 437.345 MHz
Gurwin Techsat 1B 17 Apr 07:04:50 07:09:31 32° 329° (NNW) 07:14:12 435.225 FM
JAS-2 17 Apr 07:25:49 07:30:43 40° 96° (E) 07:35:45 435.800 - 435.900 CW/SSB, 435.910 FM
AO-27 17 Apr 07:26:57 07:31:04 24° 348° (NNW) 07:35:11 436.795 MHz FM
ITAMSAT 1 17 Apr 07:38:18 07:42:22 24° 350° (N) 07:46:26 435.822 SSB
STRAND 1 17 Apr 07:48:18 07:52:03 20° 279° (W) 07:55:49 ?
Oscar 19 17 Apr 07:48:39 07:52:37 23° 360° (N) 07:56:36 437.125 CW, 437.150 USB
Sapphire 17 Apr 07:52:04 07:57:19 50° 210° (SSW) 08:02:33 437.095 MHz 1200 baud AX-25 AFSK
TMSAT-1 17 Apr 07:54:41 07:59:07 28° 337° (NNW) 08:03:33 436.925 FM
Oscar 16 17 Apr 07:56:21 08:00:19 23° 3° (N) 08:04:18 437.025 USB, Beacon 2401.1428
SO-67 17 Apr 08:01:04 08:04:31 49° 102° (ESE) 08:07:56 435.3500 MHz FM
Hamsat 17 Apr 08:02:51 08:07:10 74° 297° (WNW) 08:11:31 145.90 MHz
AO-Echo 17 Apr 08:11:17 08:15:00 21° 357° (N) 08:18:39 ?
HO-68 17 Apr 08:15:25 08:21:07 25° 79° (E) 08:26:48 435.675 MHz FM
JAS-1B 17 Apr 08:20:57 08:26:38 36° 336° (NNW) 08:31:49 435.800 - 435.900 CW/SSB
KITSAT 1 17 Apr 08:21:36 08:29:42 71° 187° (S) 08:37:46 435.175 FM
Uribyol 2 17 Apr 08:26:54 08:30:54 23° 3° (N) 08:34:54 436.500 FM
Uosat F 17 Apr 08:27:43 08:31:58 28° 335° (NNW) 08:36:11 435.120 FM
AO-7 17 Apr 08:36:22 08:44:27 59° 330° (NNW) 08:52:32 29.400 - 29.500 MHz
PCSat 17 Apr 08:37:14 08:42:14 38° 222° (SW) 08:47:12 145.825 MHz
RS-15 17 Apr 08:39:23 08:49:44 49° 135° (SE) 08:59:58 29.354 - 29.394 USB, Beacon 29.352 USB
Gurwin Techsat 1B 17 Apr 08:44:16 08:48:26 24° 353° (N) 08:52:35 435.225 FM
AO-27 17 Apr 09:05:18 09:09:25 24° 12° (NNE) 09:13:32 436.795 MHz FM
JAS-2 17 Apr 09:11:10 09:16:23 77° 300° (WNW) 09:21:43 435.800 - 435.900 CW/SSB, 435.910 FM
FUNcube-1 17 Apr 09:13:40 09:15:01 11° 73° (ENE) 09:16:23 145.950 - 145.970 MHz USB
ITAMSAT 1 17 Apr 09:16:33 09:20:42 25° 15° (NNE) 09:24:51 435.822 SSB
Oscar 19 17 Apr 09:26:30 09:30:50 28° 24° (NNE) 09:35:11 437.125 CW, 437.150 USB
Oscar 11 17 Apr 09:29:58 09:33:34 24° 88° (E) 09:37:09 145.825 FM, Beacon 2401.500 USB
TMSAT-1 17 Apr 09:33:48 09:37:53 23° 1° (N) 09:41:59 436.925 FM
Oscar 16 17 Apr 09:34:10 09:38:34 29° 27° (NNE) 09:43:00 437.025 USB, Beacon 2401.1428
SO-67 17 Apr 09:34:21 09:37:43 43° 304° (NW) 09:41:05 435.3500 MHz FM
Sapphire 17 Apr 09:35:30 09:39:54 26° 234° (SW) 09:44:18 437.095 MHz 1200 baud AX-25 AFSK
Hamsat 17 Apr 09:39:03 09:42:47 29° 320° (NW) 09:46:33 145.90 MHz
AO-Echo 17 Apr 09:48:32 09:52:36 25° 21° (NNE) 09:56:35 ?
HO-68 17 Apr 10:03:24 10:10:29 56° 105° (ESE) 10:17:32 435.675 MHz FM
Uribyol 2 17 Apr 10:04:52 10:09:18 30° 27° (NNE) 10:13:44 436.500 FM
Uosat F 17 Apr 10:05:51 10:09:40 22° 358° (N) 10:13:29 435.120 FM
JAS-1B 17 Apr 10:10:36 10:16:09 30° 3° (N) 10:21:11 435.800 - 435.900 CW/SSB
KITSAT 1 17 Apr 10:16:45 10:24:36 55° 214° (SSW) 10:32:24 435.175 FM
PCSat 17 Apr 10:21:01 10:24:27 17° 245° (WSW) 10:27:52 145.825 MHz
Gurwin Techsat 1B 17 Apr 10:22:53 10:27:12 26° 17° (NNE) 10:31:32 435.225 FM
AO-7 17 Apr 10:28:36 10:36:23 47° 357° (N) 10:44:11 29.400 - 29.500 MHz
AO-27 17 Apr 10:43:16 10:47:59 36° 36° (NE) 10:52:42 436.795 MHz FM
